User: anonymous   Login
Location: Pine Mountain Observatory
(43.7910°N, 120.9377°W)
Time: 20:18:57
(UTC-07:00)
Language:

APEX - Orbit

View from above orbital plane
View from above orbital plane
View from above satellite
View from above satellite

Ground track
Ground track

The orbit data is extracted from the following two-line orbital elements,

1 23191U 94046A   14303.98967932  .00026155  00000-0  10583-2 0   431
2 23191 069.9189 245.4362 0723090 118.6519 316.0786 14.08385492979615
Epoch (UTC): 30 October 2014 23:45:08
Eccentricity: 0.0723090
inclination: 69.9189°
perigee height: 341 km
apogee height: 1388 km
right ascension of ascending node: 245.4362°
argument of perigee: 118.6519°
revolutions per day: 14.08385492
mean anomaly at epoch: 316.0786°
orbit number at epoch: 97961

The dashed part of the orbit path shows where the satellite is in the earth's shadow,  

DLR